,,,PA_Meas_PMT16A,,PR_Meas_QMR101_102,,RH_Meas_QMH101,,SR_Meas_QMS101,,TA_Meas_QMH101,,GenWind,,GenWind,
date,time,status,PA,status,PR,status,RH,status,SR,status,TA,status,DirAvg,status,SpdAvg,
2008-07-05, 00:00:04,VALID,1011.62,VALID,0,VALID,93.9188,VALID,0,VALID,23.6338,VALID,112,VALID,1.15156,
2008-07-05, 00:01:04,VALID,1011.58,VALID,0,VALID,93.9493,VALID,0.105969,VALID,23.655,VALID,95,VALID,0.431641,
2008-07-05, 00:02:04,VALID,1011.57,VALID,0,VALID,93.995,VALID,0,VALID,23.6143,VALID,96,VALID,0.424219,
2008-07-05, 00:03:04,VALID,1011.59,VALID,0,VALID,94.0103,VALID,0.105969,VALID,23.6338,VALID,98,VALID,0.529297,
2008-07-05, 00:04:04,VALID,1011.56,VALID,0,VALID,94.0027,VALID,0.105969,VALID,23.6143,VALID,87,VALID,0.670703,
2008-07-05, 00:05:04,VALID,1011.52,VALID,0,VALID,94.0027,VALID,0.105969,VALID,23.6161,VALID,71,VALID,0.480859,
2008-07-05, 00:06:04,VALID,1011.52,VALID,0,VALID,94.0179,VALID,0.105969,VALID,23.5753,VALID,53,VALID,0.483203,
2008-07-05, 00:07:04,VALID,1011.5,VALID,0,VALID,93.995,VALID,0,VALID,23.5771,VALID,54,VALID,0.738672,
2008-07-05, 00:08:04,VALID,1011.5,VALID,0,VALID,94.0179,VALID,0.105969,VALID,23.5576,VALID,68,VALID,0.543359,
2008-07-05, 00:09:04,VALID,1011.44,VALID,0,VALID,94.0713,VALID,0.105969,VALID,23.5381,VALID,83,VALID,0.583984,
2008-07-05, 00:10:04,VALID,1011.46,VALID,0,VALID,94.1552,VALID,0.105969,VALID,23.5169,VALID,82,VALID,0.667969,
2008-07-05, 00:11:04,VALID,1011.46,VALID,0,VALID,94.2009,VALID,0,VALID,23.4992,VALID,67,VALID,0.485156,
2008-07-05, 00:12:04,VALID,1011.45,VALID,0,VALID,94.2543,VALID,0.105969,VALID,23.4779,VALID,67,VALID,0.548828,
2008-07-05, 00:13:04,VALID,1011.43,VALID,0,VALID,94.3001,VALID,0.105969,VALID,23.4797,VALID,67,VALID,0.314453,
2008-07-05, 00:14:04,VALID,1011.43,VALID,0,VALID,94.3534,VALID,0,VALID,23.4407,VALID,68,VALID,0.448047,
2008-07-05, 00:15:04,VALID,1011.41,VALID,0,VALID,94.3763,VALID,0,VALID,23.4407,VALID,81,VALID,0.773828,
2008-07-05, 00:16:04,VALID,1011.43,VALID,0,VALID,94.4145,VALID,0,VALID,23.462,VALID,72,VALID,0.458984,
2008-07-05, 00:17:04,VALID,1011.4,VALID,0,VALID,94.4526,VALID,0,VALID,23.423,VALID,71,VALID,0.446484,
2008-07-05, 00:18:04,VALID,1011.41,VALID,0,VALID,94.4678,VALID,0,VALID,23.4017,VALID,86,VALID,0.971484,
2008-07-05, 00:19:04,VALID,1011.43,VALID,0,VALID,94.5212,VALID,0,VALID,23.423,VALID,108,VALID,1.03242,
2008-07-05, 00:20:04,VALID,1011.43,VALID,0,VALID,94.567,VALID,0,VALID,23.3823,VALID,94,VALID,1.02695,
2008-07-05, 00:21:04,VALID,1011.4,VALID,0,VALID,94.5746,VALID,0,VALID,23.3628,VALID,106,VALID,0.998047,
2008-07-05, 00:22:04,VALID,1011.37,VALID,0,VALID,94.5975,VALID,0,VALID,23.3433,VALID,98,VALID,0.555469,
2008-07-05, 00:23:04,VALID,1011.36,VALID,0,VALID,94.6508,VALID,0,VALID,23.3238,VALID,93,VALID,1.00859,
2008-07-05, 00:24:04,VALID,1011.35,VALID,0,VALID,94.6585,VALID,0,VALID,23.3043,VALID,91,VALID,0.5875,
2008-07-05, 00:25:04,VALID,1011.31,VALID,0,VALID,94.689,VALID,0,VALID,23.3043,VALID,90,VALID,0.965234,
2008-07-05, 00:26:04,VALID,1011.3,VALID,0,VALID,94.7119,VALID,0,VALID,23.3043,VALID,84,VALID,0.910156,
2008-07-05, 00:27:04,VALID,1011.27,VALID,0,VALID,94.7347,VALID,0,VALID,23.3043,VALID,68,VALID,0.883594,
2008-07-05, 00:28:04,VALID,1011.26,VALID,0,VALID,94.7881,VALID,0,VALID,23.3043,VALID,85,VALID,0.549219,
2008-07-05, 00:29:04,VALID,1011.24,VALID,0,VALID,94.811,VALID,0,VALID,23.3043,VALID,74,VALID,1.01211,
2008-07-05, 00:30:04,VALID,1011.21,VALID,0,VALID,94.8339,VALID,0,VALID,23.3043,VALID,86,VALID,0.871094,
2008-07-05, 00:31:04,VALID,1011.2,VALID,0,VALID,94.8262,VALID,0,VALID,23.3043,VALID,77,VALID,1.0293,
2008-07-05, 00:32:04,VALID,1011.19,VALID,0,VALID,94.8568,VALID,0,VALID,23.3043,VALID,116,VALID,0.609375,
2008-07-05, 00:33:04,VALID,1011.2,VALID,0,VALID,94.8262,VALID,0,VALID,23.2848,VALID,102,VALID,1.19922,
2008-07-05, 00:34:04,VALID,1011.19,VALID,0,VALID,94.8186,VALID,0,VALID,23.3256,VALID,90,VALID,0.7875,
2008-07-05, 00:35:04,VALID,1011.18,VALID,0,VALID,94.8034,VALID,0,VALID,23.3043,VALID,78,VALID,1.14844,
2008-07-05, 00:36:04,VALID,1011.14,VALID,0,VALID,94.7271,VALID,0,VALID,23.3043,VALID,90,VALID,0.924219,
2008-07-05, 00:37:04,VALID,1011.13,VALID,0,VALID,94.689,VALID,0,VALID,23.3043,VALID,83,VALID,1.33633,
2008-07-05, 00:38:04,VALID,1011.13,VALID,0,VALID,94.6737,VALID,0,VALID,23.2848,VALID,83,VALID,0.619922,
2008-07-05, 00:39:04,VALID,1011.14,VALID,0,VALID,94.7042,VALID,0,VALID,23.2848,VALID,77,VALID,0.758984,
2008-07-05, 00:40:04,VALID,1011.15,VALID,0,VALID,94.689,VALID,0,VALID,23.2459,VALID,66,VALID,0.492969,
2008-07-05, 00:41:04,VALID,1011.12,VALID,0,VALID,94.6966,VALID,0,VALID,23.2654,VALID,88,VALID,0.504687,
2008-07-05, 00:42:04,VALID,1011.13,VALID,0,VALID,94.6966,VALID,0,VALID,23.2476,VALID,79,VALID,1.11055,
2008-07-05, 00:43:04,VALID,1011.09,VALID,0,VALID,94.6966,VALID,0,VALID,23.2476,VALID,59,VALID,1.1332,
2008-07-05, 00:44:04,VALID,1011.11,VALID,0,VALID,94.6966,VALID,0,VALID,23.2264,VALID,87,VALID,0.595312,
2008-07-05, 00:45:04,VALID,1011.11,VALID,0,VALID,94.7195,VALID,0,VALID,23.2282,VALID,78,VALID,0.836719,
2008-07-05, 00:46:04,VALID,1011.12,VALID,0,VALID,94.7119,VALID,0,VALID,23.2069,VALID,79,VALID,0.906641,
2008-07-05, 00:47:04,VALID,1011.1,VALID,0,VALID,94.7576,VALID,0,VALID,23.2069,VALID,79,VALID,0.670313,
2008-07-05, 00:48:04,VALID,1011.08,VALID,0,VALID,94.7729,VALID,0,VALID,23.2069,VALID,68,VALID,1.19297,
2008-07-05, 00:49:04,VALID,1011.06,VALID,0,VALID,94.7729,VALID,0,VALID,23.1874,VALID,69,VALID,0.825781,
2008-07-05, 00:50:04,VALID,1011.06,VALID,0,VALID,94.8186,VALID,0,VALID,23.2087,VALID,75,VALID,0.668359,
2008-07-05, 00:51:04,VALID,1011.02,VALID,0,VALID,94.811,VALID,0,VALID,23.2069,VALID,64,VALID,0.88125,
2008-07-05, 00:52:04,VALID,1011.01,VALID,0,VALID,94.8262,VALID,0,VALID,23.1485,VALID,58,VALID,0.583984,
2008-07-05, 00:53:04,VALID,1011.01,VALID,0,VALID,94.8262,VALID,0,VALID,23.1679,VALID,60,VALID,0.652344,
2008-07-05, 00:54:04,VALID,1010.97,VALID,0,VALID,94.872,VALID,0,VALID,23.129,VALID,67,VALID,0.34375,
2008-07-05, 00:55:04,VALID,1011,VALID,0,VALID,94.9101,VALID,0.105969,VALID,23.1095,VALID,67,VALID,0.201562,
2008-07-05, 00:56:04,VALID,1010.96,VALID,0,VALID,94.9178,VALID,0,VALID,23.1095,VALID,47,VALID,0.4125,
2008-07-05, 00:57:04,VALID,1010.96,VALID,0,VALID,94.933,VALID,0.105969,VALID,23.1095,VALID,48,VALID,0.452344,
2008-07-05, 00:58:04,VALID,1010.96,VALID,0,VALID,94.9711,VALID,0.105969,VALID,23.09,VALID,43,VALID,0.254297,
2008-07-05, 00:59:04,VALID,1010.95,VALID,0,VALID,95.0169,VALID,0,VALID,23.09,VALID,60,VALID,0.484375,
2008-07-05, 01:00:04,VALID,1010.9,VALID,0,VALID,95.055,VALID,0,VALID,23.1095,VALID,72,VALID,0.561328,
2008-07-05, 01:01:04,VALID,1010.87,VALID,0,VALID,95.0779,VALID,0,VALID,23.09,VALID,72,VALID,0.701953,
2008-07-05, 01:02:04,VALID,1010.85,VALID,0,VALID,95.0931,VALID,0,VALID,23.1095,VALID,86,VALID,0.821094,
2008-07-05, 01:03:04,VALID,1010.83,VALID,0,VALID,95.0931,VALID,0,VALID,23.09,VALID,70,VALID,1.075,
2008-07-05, 01:04:04,VALID,1010.81,VALID,0,VALID,95.1389,VALID,0,VALID,23.1095,VALID,89,VALID,0.555859,
2008-07-05, 01:05:04,VALID,1010.77,VALID,0,VALID,95.1618,VALID,0,VALID,23.1095,VALID,105,VALID,1.12305,
2008-07-05, 01:06:04,VALID,1010.75,VALID,0,VALID,95.1389,VALID,0,VALID,23.1095,VALID,95,VALID,0.677344,
2008-07-05, 01:07:04,VALID,1010.73,VALID,0,VALID,95.1618,VALID,0,VALID,23.1095,VALID,70,VALID,0.893359,
2008-07-05, 01:08:04,VALID,1010.7,VALID,0,VALID,95.1542,VALID,0,VALID,23.129,VALID,83,VALID,0.956641,
2008-07-05, 01:09:04,VALID,1010.72,VALID,0,VALID,95.1313,VALID,0,VALID,23.1095,VALID,93,VALID,1.21953,
2008-07-05, 01:10:04,VALID,1010.67,VALID,0,VALID,95.1465,VALID,0,VALID,23.1095,VALID,69,VALID,0.914844,
2008-07-05, 01:11:04,VALID,1010.67,VALID,0,VALID,95.0931,VALID,0,VALID,23.1095,VALID,64,VALID,0.745313,
2008-07-05, 01:12:04,VALID,1010.65,VALID,0,VALID,95.055,VALID,0,VALID,23.09,VALID,35,VALID,0.753125,
2008-07-05, 01:13:04,VALID,1010.64,VALID,0,VALID,95.0398,VALID,0,VALID,23.09,VALID,49,VALID,0.414063,
2008-07-05, 01:14:04,VALID,1010.65,VALID,0,VALID,95.0245,VALID,0,VALID,23.0918,VALID,57,VALID,0.460547,
2008-07-05, 01:15:04,VALID,1010.65,VALID,0,VALID,95.0093,VALID,0,VALID,23.09,VALID,59,VALID,0.412891,
2008-07-05, 01:16:04,VALID,1010.65,VALID,0,VALID,94.9788,VALID,0,VALID,23.0511,VALID,65,VALID,0.7125,
2008-07-05, 01:17:04,VALID,1010.65,VALID,0,VALID,94.9711,VALID,0,VALID,23.0705,VALID,70,VALID,0.396484,
2008-07-05, 01:18:04,VALID,1010.63,VALID,0,VALID,94.9788,VALID,0,VALID,23.0705,VALID,74,VALID,0.582031,
2008-07-05, 01:19:04,VALID,1010.61,VALID,0,VALID,94.9788,VALID,0,VALID,23.0705,VALID,73,VALID,0.511328,
2008-07-05, 01:20:04,VALID,1010.58,VALID,0,VALID,94.9864,VALID,0,VALID,23.0705,VALID,79,VALID,0.712109,
2008-07-05, 01:21:04,VALID,1010.57,VALID,0,VALID,94.9711,VALID,0,VALID,23.0511,VALID,70,VALID,0.562891,
2008-07-05, 01:22:04,VALID,1010.56,VALID,0,VALID,94.9635,VALID,0,VALID,23.0511,VALID,73,VALID,0.378516,
2008-07-05, 01:23:04,VALID,1010.54,VALID,0,VALID,94.9864,VALID,0,VALID,23.0705,VALID,89,VALID,0.794531,
2008-07-05, 01:24:04,VALID,1010.53,VALID,0,VALID,94.9788,VALID,0,VALID,23.0723,VALID,60,VALID,0.264062,
2008-07-05, 01:25:04,VALID,1010.51,VALID,0,VALID,94.9864,VALID,0,VALID,23.0511,VALID,61,VALID,0.373828,
2008-07-05, 01:26:04,VALID,1010.5,VALID,0,VALID,94.9788,VALID,0,VALID,23.0511,VALID,59,VALID,0.551562,
2008-07-05, 01:27:04,VALID,1010.47,VALID,0,VALID,94.9788,VALID,0,VALID,23.0121,VALID,54,VALID,0.276563,
2008-07-05, 01:28:04,VALID,1010.43,VALID,0,VALID,94.994,VALID,0,VALID,23.0121,VALID,34,VALID,0.345703,
2008-07-05, 01:29:04,VALID,1010.4,VALID,0,VALID,94.994,VALID,0.105969,VALID,23.0103,VALID,52,VALID,0.360156,
2008-07-05, 01:30:04,VALID,1010.38,VALID,0,VALID,94.9864,VALID,0.105969,VALID,22.9714,VALID,52,VALID,0.166016,
2008-07-05, 01:31:04,VALID,1010.38,VALID,0,VALID,95.0169,VALID,0.105969,VALID,22.9714,VALID,52,VALID,0.118359,
2008-07-05, 01:32:04,VALID,1010.39,VALID,0,VALID,95.0321,VALID,0.105969,VALID,22.9714,VALID,52,VALID,0.0148437,
2008-07-05, 01:33:04,VALID,1010.4,VALID,0,VALID,95.0703,VALID,0.105969,VALID,22.9909,VALID,52,VALID,0,
2008-07-05, 01:34:04,VALID,1010.39,VALID,0,VALID,95.0779,VALID,0.105969,VALID,22.9519,VALID,52,VALID,0,
2008-07-05, 01:35:04,VALID,1010.36,VALID,0,VALID,95.0931,VALID,0,VALID,22.9714,VALID,52,VALID,0,
2008-07-05, 01:36:04,VALID,1010.37,VALID,0,VALID,95.0855,VALID,0.105969,VALID,22.9731,VALID,52,VALID,0,
2008-07-05, 01:37:04,VALID,1010.35,VALID,0,VALID,95.0931,VALID,0.105969,VALID,22.9519,VALID,52,VALID,0.0238281,
2008-07-05, 01:38:04,VALID,1010.36,VALID,0,VALID,95.1084,VALID,0.105969,VALID,22.9324,VALID,52,VALID,0.0703125,
2008-07-05, 01:39:04,VALID,1010.34,VALID,0,VALID,95.1236,VALID,0.105969,VALID,22.9324,VALID,51,VALID,0.111719,
2008-07-05, 01:40:04,VALID,1010.35,VALID,0,VALID,95.1389,VALID,0.105969,VALID,22.9519,VALID,23,VALID,0.410156,
2008-07-05, 01:41:04,VALID,1010.33,VALID,0,VALID,95.1847,VALID,0.105969,VALID,22.9324,VALID,23,VALID,0.189063,
2008-07-05, 01:42:04,VALID,1010.34,VALID,0,VALID,95.177,VALID,0.105969,VALID,22.9324,VALID,23,VALID,0,
2008-07-05, 01:43:04,VALID,1010.35,VALID,0,VALID,95.2152,VALID,0.105969,VALID,22.9324,VALID,23,VALID,0,
2008-07-05, 01:44:04,VALID,1010.35,VALID,0,VALID,95.238,VALID,0,VALID,22.9147,VALID,23,VALID,0.003125,
2008-07-05, 01:45:04,VALID,1010.29,VALID,0,VALID,95.2609,VALID,0,VALID,22.9147,VALID,23,VALID,0.262109,
2008-07-05, 01:46:04,VALID,1010.29,VALID,0,VALID,95.2685,VALID,0,VALID,22.9342,VALID,23,VALID,0.114063,
2008-07-05, 01:47:04,VALID,1010.26,VALID,0,VALID,95.2609,VALID,0,VALID,22.9147,VALID,23,VALID,0,
2008-07-05, 01:48:04,VALID,1010.28,VALID,0,VALID,95.2685,VALID,0,VALID,22.9147,VALID,23,VALID,0.110547,
2008-07-05, 01:49:04,VALID,1010.27,VALID,0,VALID,95.2914,VALID,0,VALID,22.9147,VALID,23,VALID,0.261328,
2008-07-05, 01:50:04,VALID,1010.25,VALID,0,VALID,95.2914,VALID,0,VALID,22.9147,VALID,23,VALID,0.279297,
2008-07-05, 01:51:04,VALID,1010.26,VALID,0,VALID,95.2762,VALID,0,VALID,22.8952,VALID,23,VALID,0.157422,
2008-07-05, 01:52:04,VALID,1010.23,VALID,0,VALID,95.3067,VALID,0,VALID,22.8969,VALID,23,VALID,0.165234,
2008-07-05, 01:53:04,VALID,1010.25,VALID,0,VALID,95.3143,VALID,0,VALID,22.8757,VALID,23,VALID,0.0550781,
2008-07-05, 01:54:04,VALID,1010.25,VALID,0,VALID,95.3219,VALID,0,VALID,22.8757,VALID,23,VALID,0.028125,
2008-07-05, 01:55:04,VALID,1010.25,VALID,0,VALID,95.3372,VALID,0,VALID,22.8757,VALID,23,VALID,0.207813,
2008-07-05, 01:56:04,VALID,1010.23,VALID,0,VALID,95.3219,VALID,0,VALID,22.8757,VALID,23,VALID,0.145313,
2008-07-05, 01:57:04,VALID,1010.2,VALID,0,VALID,95.3372,VALID,0,VALID,22.8757,VALID,23,VALID,0.29375,
2008-07-05, 01:58:04,VALID,1010.2,VALID,0,VALID,95.3524,VALID,0,VALID,22.8775,VALID,23,VALID,0.295312,
2008-07-05, 01:59:04,VALID,1010.19,VALID,0,VALID,95.3677,VALID,0,VALID,22.8562,VALID,23,VALID,0.115625,
2008-07-05, 02:00:04,VALID,1010.17,VALID,0,VALID,95.3677,VALID,0,VALID,22.8368,VALID,23,VALID,0.0433594,
2008-07-05, 02:01:04,VALID,1010.17,VALID,0,VALID,95.4134,VALID,0,VALID,22.8562,VALID,23,VALID,0.303906,
2008-07-05, 02:02:04,VALID,1010.15,VALID,0,VALID,95.4058,VALID,0,VALID,22.8562,VALID,56,VALID,0.632422,
2008-07-05, 02:03:04,VALID,1010.09,VALID,0,VALID,95.4287,VALID,0,VALID,22.8562,VALID,52,VALID,0.522656,
2008-07-05, 02:04:04,VALID,1010.1,VALID,0,VALID,95.4363,VALID,0,VALID,22.8775,VALID,48,VALID,0.441016,
2008-07-05, 02:05:04,VALID,1010.12,VALID,0,VALID,95.4363,VALID,0,VALID,22.8562,VALID,47,VALID,0.308203,
2008-07-05, 02:06:04,VALID,1010.11,VALID,0,VALID,95.4058,VALID,0,VALID,22.858,VALID,60,VALID,0.327734,
2008-07-05, 02:07:04,VALID,1010.07,VALID,0,VALID,95.4439,VALID,0,VALID,22.8368,VALID,72,VALID,0.76875,
2008-07-05, 02:08:04,VALID,1010.07,VALID,0,VALID,95.4439,VALID,0,VALID,22.8368,VALID,81,VALID,0.785156,
2008-07-05, 02:09:04,VALID,1010.06,VALID,0,VALID,95.4439,VALID,0,VALID,22.8368,VALID,74,VALID,0.805078,
2008-07-05, 02:10:04,VALID,1010.09,VALID,0,VALID,95.4516,VALID,0,VALID,22.8368,VALID,62,VALID,0.325781,
2008-07-05, 02:11:04,VALID,1010.08,VALID,0,VALID,95.4592,VALID,0,VALID,22.8368,VALID,62,VALID,0.216797,
2008-07-05, 02:12:04,VALID,1010.03,VALID,0,VALID,95.4592,VALID,0,VALID,22.8368,VALID,52,VALID,0.500391,
2008-07-05, 02:13:04,VALID,1010.04,VALID,0,VALID,95.4744,VALID,0,VALID,22.858,VALID,52,VALID,0.373437,
2008-07-05, 02:14:04,VALID,1010.05,VALID,0,VALID,95.4516,VALID,0,VALID,22.8173,VALID,53,VALID,0.128125,
2008-07-05, 02:15:04,VALID,1010.03,VALID,0,VALID,95.4516,VALID,0,VALID,22.858,VALID,53,VALID,0.191797,
2008-07-05, 02:16:04,VALID,1010.01,VALID,0,VALID,95.4439,VALID,0,VALID,22.8173,VALID,53,VALID,0.258203,
2008-07-05, 02:17:04,VALID,1010.03,VALID,0,VALID,95.4363,VALID,0,VALID,22.7978,VALID,53,VALID,0,
2008-07-05, 02:18:04,VALID,1009.99,VALID,0,VALID,95.4516,VALID,0,VALID,22.819,VALID,53,VALID,0,
2008-07-05, 02:19:04,VALID,1010.03,VALID,0,VALID,95.4516,VALID,0,VALID,22.819,VALID,25,VALID,0.233984,
2008-07-05, 02:20:04,VALID,1010.01,VALID,0,VALID,95.4363,VALID,0,VALID,22.7978,VALID,59,VALID,0.840625,
2008-07-05, 02:21:04,VALID,1010,VALID,0,VALID,95.4439,VALID,0,VALID,22.7783,VALID,43,VALID,0.247266,
2008-07-05, 02:22:04,VALID,1010.02,VALID,0,VALID,95.4363,VALID,0,VALID,22.7783,VALID,43,VALID,0,
2008-07-05, 02:23:04,VALID,1009.99,VALID,0,VALID,95.4363,VALID,0,VALID,22.78,VALID,43,VALID,0,
2008-07-05, 02:24:04,VALID,1009.98,VALID,0,VALID,95.4363,VALID,0,VALID,22.7995,VALID,34,VALID,0.371484,
2008-07-05, 02:25:04,VALID,1009.95,VALID,0,VALID,95.4439,VALID,0,VALID,22.7606,VALID,34,VALID,0.163672,
2008-07-05, 02:26:04,VALID,1009.95,VALID,0,VALID,95.4211,VALID,0,VALID,22.7588,VALID,34,VALID,0.132422,
2008-07-05, 02:27:04,VALID,1009.92,VALID,0,VALID,95.4287,VALID,0,VALID,22.7588,VALID,69,VALID,0.386328,
2008-07-05, 02:28:04,VALID,1009.92,VALID,0,VALID,95.4363,VALID,0,VALID,22.7588,VALID,29,VALID,0.475391,
2008-07-05, 02:29:04,VALID,1009.9,VALID,0,VALID,95.4287,VALID,0,VALID,22.7394,VALID,45,VALID,0.299219,
2008-07-05, 02:30:04,VALID,1009.87,VALID,0,VALID,95.4134,VALID,0,VALID,22.7199,VALID,44,VALID,0.202344,
2008-07-05, 02:31:04,VALID,1009.87,VALID,0,VALID,95.4134,VALID,0,VALID,22.7606,VALID,44,VALID,0.184766,
2008-07-05, 02:32:04,VALID,1009.85,VALID,0,VALID,95.4287,VALID,0,VALID,22.7199,VALID,44,VALID,0.0347656,
2008-07-05, 02:33:04,VALID,1009.85,VALID,0,VALID,95.4058,VALID,0,VALID,22.7199,VALID,44,VALID,0.0664063,
2008-07-05, 02:34:04,VALID,1009.88,VALID,0,VALID,95.4211,VALID,0,VALID,22.7199,VALID,44,VALID,0.0152344,
2008-07-05, 02:35:04,VALID,1009.87,VALID,0,VALID,95.3905,VALID,0,VALID,22.7004,VALID,44,VALID,0.144531,
2008-07-05, 02:36:04,VALID,1009.86,VALID,0,VALID,95.3905,VALID,0,VALID,22.7199,VALID,44,VALID,0.107813,
2008-07-05, 02:37:04,VALID,1009.88,VALID,0,VALID,95.3982,VALID,0,VALID,22.7216,VALID,44,VALID,0.239453,
2008-07-05, 02:38:04,VALID,1009.87,VALID,0,VALID,95.3905,VALID,0,VALID,22.7199,VALID,44,VALID,0,
2008-07-05, 02:39:04,VALID,1009.86,VALID,0,VALID,95.4134,VALID,0,VALID,22.7004,VALID,44,VALID,0,
2008-07-05, 02:40:04,VALID,1009.84,VALID,0,VALID,95.4134,VALID,0,VALID,22.7004,VALID,44,VALID,0.0175781,
2008-07-05, 02:41:04,VALID,1009.81,VALID,0,VALID,95.4134,VALID,0,VALID,22.7216,VALID,44,VALID,0.332031,
2008-07-05, 02:42:04,VALID,1009.79,VALID,0,VALID,95.4058,VALID,0,VALID,22.7216,VALID,44,VALID,0.320313,
2008-07-05, 02:43:04,VALID,1009.82,VALID,0,VALID,95.3982,VALID,0,VALID,22.7199,VALID,43,VALID,0.00859375,
2008-07-05, 02:44:04,VALID,1009.83,VALID,0,VALID,95.3982,VALID,0,VALID,22.7216,VALID,43,VALID,0.0582031,
2008-07-05, 02:45:04,VALID,1009.83,VALID,0,VALID,95.3905,VALID,0,VALID,22.7021,VALID,43,VALID,0.130078,
2008-07-05, 02:46:04,VALID,1009.83,VALID,0,VALID,95.4134,VALID,0,VALID,22.6809,VALID,43,VALID,0.00429688,
2008-07-05, 02:47:04,VALID,1009.8,VALID,0,VALID,95.3905,VALID,0,VALID,22.7004,VALID,21,VALID,0.412891,
2008-07-05, 02:48:04,VALID,1009.78,VALID,0,VALID,95.3905,VALID,0,VALID,22.6809,VALID,2,VALID,0.287109,
2008-07-05, 02:49:04,VALID,1009.79,VALID,0,VALID,95.3829,VALID,0,VALID,22.6809,VALID,2,VALID,0.194141,
2008-07-05, 02:50:04,VALID,1009.81,VALID,0,VALID,95.36,VALID,0,VALID,22.7004,VALID,1,VALID,0.0601562,
2008-07-05, 02:51:04,VALID,1009.78,VALID,0,VALID,95.4134,VALID,0,VALID,22.7021,VALID,282,VALID,0.382813,
2008-07-05, 02:52:04,VALID,1009.77,VALID,0,VALID,95.3982,VALID,0,VALID,22.7004,VALID,298,VALID,0.365625,
2008-07-05, 02:53:04,VALID,1009.77,VALID,0,VALID,95.3829,VALID,0,VALID,22.6826,VALID,298,VALID,0.197656,
2008-07-05, 02:54:04,VALID,1009.75,VALID,0,VALID,95.3677,VALID,0,VALID,22.6826,VALID,298,VALID,0.0375,
2008-07-05, 02:55:04,VALID,1009.76,VALID,0,VALID,95.3753,VALID,0,VALID,22.642,VALID,298,VALID,0,
2008-07-05, 02:56:04,VALID,1009.78,VALID,0,VALID,95.3524,VALID,0,VALID,22.642,VALID,298,VALID,0,
2008-07-05, 02:57:04,VALID,1009.81,VALID,0,VALID,95.3448,VALID,0,VALID,22.6225,VALID,298,VALID,0,
2008-07-05, 02:58:04,VALID,1009.86,VALID,0,VALID,95.3524,VALID,0,VALID,22.6437,VALID,298,VALID,0.197266,
2008-07-05, 02:59:04,VALID,1009.89,VALID,0,VALID,95.3677,VALID,0,VALID,22.6225,VALID,298,VALID,0.0410156,
2008-07-05, 03:00:04,VALID,1009.89,VALID,0,VALID,95.3829,VALID,0,VALID,22.6225,VALID,298,VALID,0,
2008-07-05, 03:01:04,VALID,1009.87,VALID,0,VALID,95.3753,VALID,0,VALID,22.6225,VALID,298,VALID,0,
2008-07-05, 03:02:04,VALID,1009.85,VALID,0,VALID,95.3753,VALID,0,VALID,22.6225,VALID,298,VALID,0,
2008-07-05, 03:03:04,VALID,1009.89,VALID,0,VALID,95.3905,VALID,0,VALID,22.603,VALID,298,VALID,0,
2008-07-05, 03:04:04,VALID,1009.86,VALID,0,VALID,95.3677,VALID,0,VALID,22.6242,VALID,298,VALID,0,
2008-07-05, 03:05:04,VALID,1009.86,VALID,0,VALID,95.3753,VALID,0,VALID,22.603,VALID,298,VALID,0,
2008-07-05, 03:06:04,VALID,1009.88,VALID,0,VALID,95.3905,VALID,0,VALID,22.5835,VALID,298,VALID,0,
2008-07-05, 03:07:04,VALID,1009.88,VALID,0,VALID,95.3829,VALID,0,VALID,22.5835,VALID,298,VALID,0.028125,
2008-07-05, 03:08:04,VALID,1009.93,VALID,0,VALID,95.3753,VALID,0,VALID,22.6242,VALID,298,VALID,0,
2008-07-05, 03:09:04,VALID,1009.9,VALID,0,VALID,95.3753,VALID,0,VALID,22.5852,VALID,298,VALID,0,
2008-07-05, 03:10:04,VALID,1009.87,VALID,0,VALID,95.3905,VALID,0,VALID,22.564,VALID,298,VALID,0,
2008-07-05, 03:11:04,VALID,1009.9,VALID,0,VALID,95.4058,VALID,0,VALID,22.564,VALID,298,VALID,0,
2008-07-05, 03:12:04,VALID,1009.88,VALID,0,VALID,95.3905,VALID,0,VALID,22.5446,VALID,298,VALID,0,
2008-07-05, 03:13:04,VALID,1009.86,VALID,0,VALID,95.4134,VALID,0,VALID,22.5658,VALID,298,VALID,0,
2008-07-05, 03:14:04,VALID,1009.88,VALID,0,VALID,95.4211,VALID,0,VALID,22.5234,VALID,298,VALID,0,
2008-07-05, 03:15:04,VALID,1009.84,VALID,0,VALID,95.4516,VALID,0,VALID,22.564,VALID,298,VALID,0,
2008-07-05, 03:16:04,VALID,1009.84,VALID,0,VALID,95.4744,VALID,0.105969,VALID,22.5835,VALID,298,VALID,0,
2008-07-05, 03:17:04,VALID,1009.83,VALID,0,VALID,95.4592,VALID,0,VALID,22.564,VALID,298,VALID,0,
2008-07-05, 03:18:04,VALID,1009.86,VALID,0,VALID,95.4516,VALID,0.105969,VALID,22.5429,VALID,298,VALID,0,
2008-07-05, 03:19:04,VALID,1009.85,VALID,0,VALID,95.4363,VALID,0,VALID,22.564,VALID,298,VALID,0,
2008-07-05, 03:20:04,VALID,1009.83,VALID,0,VALID,95.4821,VALID,0,VALID,22.5446,VALID,298,VALID,0.222266,
2008-07-05, 03:21:04,VALID,1009.84,VALID,0,VALID,95.4744,VALID,0,VALID,22.5446,VALID,298,VALID,0.113281,
2008-07-05, 03:22:04,VALID,1009.85,VALID,0,VALID,95.4973,VALID,0,VALID,22.5446,VALID,298,VALID,0,
2008-07-05, 03:23:04,VALID,1009.87,VALID,0,VALID,95.4973,VALID,0,VALID,22.5446,VALID,298,VALID,0,
2008-07-05, 03:24:04,VALID,1009.86,VALID,0,VALID,95.4592,VALID,0,VALID,22.5251,VALID,298,VALID,0,
2008-07-05, 03:25:04,VALID,1009.87,VALID,0,VALID,95.4973,VALID,0,VALID,22.5251,VALID,298,VALID,0,
2008-07-05, 03:26:04,VALID,1009.9,VALID,0,VALID,95.5126,VALID,0,VALID,22.5446,VALID,298,VALID,0.300781,
2008-07-05, 03:27:04,VALID,1009.92,VALID,0,VALID,95.5126,VALID,0,VALID,22.5446,VALID,298,VALID,0.250391,
2008-07-05, 03:28:04,VALID,1009.92,VALID,0,VALID,95.5278,VALID,0,VALID,22.5251,VALID,298,VALID,0.191797,
2008-07-05, 03:29:04,VALID,1009.91,VALID,0,VALID,95.5126,VALID,0,VALID,22.5056,VALID,298,VALID,0.0347656,
2008-07-05, 03:30:04,VALID,1009.93,VALID,0,VALID,95.4973,VALID,0,VALID,22.4861,VALID,298,VALID,0.0808594,
2008-07-05, 03:31:04,VALID,1009.92,VALID,0,VALID,95.4897,VALID,0,VALID,22.4455,VALID,298,VALID,0,
2008-07-05, 03:32:04,VALID,1009.91,VALID,0,VALID,95.5202,VALID,0,VALID,22.4861,VALID,298,VALID,0,
2008-07-05, 03:33:04,VALID,1009.91,VALID,0,VALID,95.5202,VALID,0,VALID,22.4667,VALID,298,VALID,0,
2008-07-05, 03:34:04,VALID,1009.87,VALID,0,VALID,95.5354,VALID,0,VALID,22.4667,VALID,298,VALID,0,
2008-07-05, 03:35:04,VALID,1009.88,VALID,0,VALID,95.5507,VALID,0,VALID,22.4667,VALID,298,VALID,0,
2008-07-05, 03:36:04,VALID,1009.86,VALID,0,VALID,95.5659,VALID,0,VALID,22.4455,VALID,298,VALID,0,
2008-07-05, 03:37:04,VALID,1009.87,VALID,0,VALID,95.5659,VALID,0,VALID,22.4667,VALID,298,VALID,0,
2008-07-05, 03:38:04,VALID,1009.86,VALID,0,VALID,95.5812,VALID,0,VALID,22.4472,VALID,298,VALID,0,
2008-07-05, 03:39:04,VALID,1009.87,VALID,0,VALID,95.5812,VALID,0,VALID,22.4878,VALID,298,VALID,0,
2008-07-05, 03:40:04,VALID,1009.83,VALID,0,VALID,95.5964,VALID,0,VALID,22.4667,VALID,298,VALID,0,
2008-07-05, 03:41:04,VALID,1009.84,VALID,0,VALID,95.6269,VALID,0,VALID,22.4667,VALID,298,VALID,0,
2008-07-05, 03:42:04,VALID,1009.84,VALID,0,VALID,95.6117,VALID,0,VALID,22.4667,VALID,298,VALID,0,
2008-07-05, 03:43:04,VALID,1009.84,VALID,0,VALID,95.6117,VALID,0,VALID,22.4455,VALID,298,VALID,0,
2008-07-05, 03:44:04,VALID,1009.89,VALID,0,VALID,95.6346,VALID,0,VALID,22.4861,VALID,298,VALID,0,
2008-07-05, 03:45:04,VALID,1009.87,VALID,0,VALID,95.6498,VALID,0,VALID,22.4861,VALID,231,VALID,0,
2008-07-05, 03:46:04,VALID,1009.88,VALID,0,VALID,95.6574,VALID,0,VALID,22.5056,VALID,230,VALID,0,
2008-07-05, 03:47:04,VALID,1009.87,VALID,0,VALID,95.6498,VALID,0,VALID,22.4861,VALID,221,VALID,0,